Weather reports worldwide

Advertisment
Venezia/Tessera, Italy (16105): temperature & dewpoint: 16.01.2019 04:00:00 - 22.01.2019 04:00:00 (CET)Venezia/Tessera, Italy (16105): wind speed: 16.01.2019 04:00:00 - 22.01.2019 04:00:00 (CET)Venezia/Tessera, Italy (16105): wind direction: 16.01.2019 04:00:00 - 22.01.2019 04:00:00 (CET)Venezia/Tessera, Italy (16105): reduced air pressure: 16.01.2019 04:00:00 - 22.01.2019 04:00:00 (CET)Venezia/Tessera, Italy (16105): visibility: 16.01.2019 04:00:00 - 22.01.2019 04:00:00 (CET)Venezia/Tessera, Italy (16105): precipitation: 16.01.2019 04:00:00 - 22.01.2019 04:00:00 (CET)
Date & Time tt [°C] td [°C] ff [km/h] ff [kn] dd ppp [hPa] vv [km] rr [mm]
22.01.2019 04:00:00 0,2 -4,2 16 9 N 1013,1 10 0,0
22.01.2019 03:00:00 0,0 -4,0 13 7 N - 10 -
22.01.2019 02:00:00 1,0 -4,0 15 8 N - 10 -
22.01.2019 01:00:00 1,1 -3,7 15 8 N 1015,2 10 -
22.01.2019 00:00:00 1,0 -4,0 13 7 N - 10 -
21.01.2019 23:00:00 1,0 -4,0 15 8 N - 10 -
21.01.2019 22:00:00 1,9 -3,7 15 8 N 1015,9 10 0,0
21.01.2019 21:00:00 3,0 -3,0 15 8 N - 10 -
21.01.2019 20:00:00 2,0 -3,0 15 8 NNE - 10 -
21.01.2019 19:00:00 1,9 -1,8 11 6 NE 1016,2 10 -
21.01.2019 18:00:00 3,0 -2,0 13 7 NE - 10 -
21.01.2019 17:00:00 5,0 0,0 9 5 NE - 10 -
21.01.2019 16:00:00 6,1 -0,3 13 7 NE 1016,1 10 0,0
21.01.2019 15:00:00 7,0 -2,0 13 7 NNE - 10 -
21.01.2019 14:00:00 7,0 -1,0 11 6 NE - 10 -
21.01.2019 13:00:00 6,4 -1,5 18 10 NE 1017,2 10 -
21.01.2019 12:00:00 5,0 -2,0 21 11 NNE - 10 -
21.01.2019 11:00:00 4,0 -2,0 16 9 NNE - 10 -
21.01.2019 10:00:00 3,1 -2,5 18 10 N 1017,9 10 0,0
21.01.2019 09:00:00 2,0 -3,0 15 8 N - 10 -
21.01.2019 08:00:00 2,0 -3,0 15 8 N - 10 -
21.01.2019 07:00:00 2,0 -2,6 11 6 N 1017,1 10 -
21.01.2019 06:00:00 2,0 -2,0 11 6 N - 10 -
21.01.2019 05:00:00 2,0 -2,0 11 6 N - 10 -
21.01.2019 04:00:00 1,6 -2,6 9 5 N 1016,9 10 0,0
21.01.2019 03:00:00 2,0 -2,0 11 6 NNE - 10 -
21.01.2019 02:00:00 1,0 -2,0 11 6 N - 9 -
21.01.2019 01:00:00 1,5 -2,2 13 7 N 1017,2 9 -
21.01.2019 00:00:00 2,0 -2,0 9 5 NNW - 10 -
20.01.2019 23:00:00 3,0 -2,0 5 3 NW - 10 -
20.01.2019 22:00:00 3,4 -1,5 4 2 - 1017,1 10 0,0
20.01.2019 21:00:00 3,0 -2,0 5 3 WNW - 10 -
20.01.2019 20:00:00 4,0 -2,0 4 2 - - 10 -
20.01.2019 19:00:00 4,4 -2,1 5 3 WSW 1016,2 10 -
20.01.2019 18:00:00 4,0 -1,0 8 4 WSW - 10 -
20.01.2019 17:00:00 4,0 0,0 9 5 SSW - 10 -
20.01.2019 16:00:00 5,0 -1,9 5 3 S 1015,3 10 0,0
20.01.2019 15:00:00 6,0 -4,0 5 3 S - 10 -
20.01.2019 14:00:00 5,0 -3,0 8 4 SSE - 10 -
20.01.2019 13:00:00 4,6 -2,2 5 3 E 1015,7 10 -
20.01.2019 12:00:00 3,0 -2,0 8 4 N - 10 -
20.01.2019 11:00:00 2,0 -2,0 8 4 N - 10 -
20.01.2019 10:00:00 0,6 -3,4 5 3 NNE 1016,1 10 0,0
20.01.2019 09:00:00 0,0 -4,0 11 6 N - 10 -
20.01.2019 08:00:00 -1,0 -4,0 11 6 N - 10 -
20.01.2019 07:00:00 -0,9 -3,8 9 5 NNW 1015,0 10 -
20.01.2019 06:00:00 -1,0 -4,0 8 4 NNW - 10 -
20.01.2019 05:00:00 -1,0 -4,0 9 5 NW - 10 -
20.01.2019 04:00:00 -0,1 -3,7 9 5 N 1015,1 10 0,0
20.01.2019 03:00:00 - - - - - - - -
20.01.2019 02:00:00 1,0 -4,0 5 3 NW - 10 -
20.01.2019 01:00:00 0,8 -3,2 4 2 - 1015,7 10 -
20.01.2019 00:00:00 1,0 -3,0 9 5 NNE - 10 -
19.01.2019 23:00:00 1,0 -3,0 13 7 NNE - 10 -
19.01.2019 22:00:00 1,6 -2,6 13 7 NNE 1016,1 10 0,0
19.01.2019 21:00:00 2,0 -2,0 9 5 N - 10 -
19.01.2019 20:00:00 2,0 -2,0 11 6 NNE - 10 -
19.01.2019 19:00:00 2,5 -2,0 9 5 N 1016,0 10 -
19.01.2019 18:00:00 4,0 -2,0 5 3 N - 10 -
19.01.2019 17:00:00 4,0 -2,0 9 5 NNE - 10 -
19.01.2019 16:00:00 5,4 -1,8 11 6 NE 1016,0 10 0,0
19.01.2019 15:00:00 6,0 -2,0 13 7 NE - 10 -
19.01.2019 14:00:00 5,0 -2,0 15 8 NE - 10 -
19.01.2019 13:00:00 5,3 -1,7 16 9 NE 1017,1 10 -
19.01.2019 12:00:00 5,0 -1,0 16 9 NE - 10 -
19.01.2019 11:00:00 4,0 -1,0 15 8 NE - 10 -
19.01.2019 10:00:00 3,8 -1,1 16 9 NNE 1017,8 10 0,0
19.01.2019 09:00:00 3,0 -2,0 11 6 NNE - 10 -
19.01.2019 08:00:00 2,0 -2,0 15 8 NNE - 10 -
19.01.2019 07:00:00 2,7 -1,7 16 9 NNE 1017,2 10 -
19.01.2019 06:00:00 3,0 -2,0 18 10 NNE - 10 -
19.01.2019 05:00:00 4,0 -2,0 22 12 NNE - 10 -
19.01.2019 04:00:00 3,4 -2,2 21 11 NNE 1017,6 10 0,0
19.01.2019 03:00:00 3,0 -2,0 21 11 NNE - 10 -
19.01.2019 02:00:00 3,0 -1,0 16 9 NNE - 10 -
19.01.2019 01:00:00 3,4 -0,6 18 10 NNE 1018,0 10 -
19.01.2019 00:00:00 5,0 -1,0 26 14 NE - 10 -
18.01.2019 23:00:00 5,0 -1,0 28 15 ENE - 10 -
18.01.2019 22:00:00 5,2 0,6 22 12 ENE 1017,4 10 0,0
18.01.2019 21:00:00 5,0 1,0 24 13 NE - 10 -
18.01.2019 20:00:00 5,0 2,0 29 16 NE - 10 -
18.01.2019 19:00:00 5,2 2,0 34 18 ENE 1016,6 10 -
18.01.2019 18:00:00 6,0 2,0 22 12 ENE - 10 -
18.01.2019 17:00:00 6,0 2,0 22 12 ENE - 10 -
18.01.2019 16:00:00 6,4 2,1 34 18 ENE 1014,6 10 0,0
18.01.2019 15:00:00 7,0 2,0 26 14 ENE - 10 -
18.01.2019 14:00:00 7,0 3,0 34 18 NE - 10 -
18.01.2019 13:00:00 6,1 3,3 22 12 NE 1014,1 10 -
18.01.2019 12:00:00 6,0 5,0 22 12 NE - 10 -
18.01.2019 11:00:00 7,0 5,0 16 9 NNE - 9 -
18.01.2019 10:00:00 6,8 6,0 2 1 - 1012,3 3,5 0,0
18.01.2019 09:00:00 6,0 6,0 5 3 NNW - 2,0 -
18.01.2019 08:00:00 6,0 5,0 4 2 - - 2,0 -
18.01.2019 07:00:00 5,6 5,4 8 4 W 1009,5 3,0 -
18.01.2019 06:00:00 6,0 6,0 8 4 W - 2,0 -
18.01.2019 05:00:00 6,0 6,0 5 3 WNW - 1,8 -
18.01.2019 04:00:00 5,7 5,5 9 5 WNW 1008,9 1,5 0,0
18.01.2019 03:00:00 6,0 5,0 8 4 N - 1,5 -
18.01.2019 02:00:00 6,0 5,0 8 4 N - 1,5 -
18.01.2019 01:00:00 5,6 5,3 9 5 N 1009,6 1,5 -
18.01.2019 00:00:00 6,0 5,0 9 5 N - 3,0 -
17.01.2019 23:00:00 6,0 5,0 9 5 NNE - 3,5 -
17.01.2019 22:00:00 5,7 4,9 9 5 NE 1010,9 4,5 0,0
17.01.2019 21:00:00 6,0 5,0 13 7 NNE - 4,5 -
17.01.2019 20:00:00 6,0 4,0 13 7 NNE - 6 -
17.01.2019 19:00:00 6,6 3,6 9 5 N 1011,9 8 -
17.01.2019 18:00:00 7,0 3,0 11 6 N - 8 -
17.01.2019 17:00:00 8,0 4,0 8 4 N - 9 -
17.01.2019 16:00:00 7,7 3,6 8 4 ENE 1012,7 10 0,0
17.01.2019 15:00:00 8,0 3,0 9 5 N - 10 -
17.01.2019 14:00:00 8,0 3,0 9 5 N - 10 -
17.01.2019 13:00:00 7,8 3,0 8 4 N 1014,3 9 -
17.01.2019 12:00:00 7,0 3,0 8 4 NE - 9 -
17.01.2019 11:00:00 6,0 2,0 8 4 NE - 9 -
17.01.2019 10:00:00 5,1 2,0 8 4 NE 1016,2 9 0,0
17.01.2019 09:00:00 3,0 2,0 5 3 ENE - 9 -
17.01.2019 08:00:00 4,0 1,0 9 5 N - 9 -
17.01.2019 07:00:00 3,5 1,2 8 4 NNW 1016,1 10 -
17.01.2019 06:00:00 3,0 1,0 9 5 N - 10 -
17.01.2019 05:00:00 3,0 0,0 9 5 N - 10 -
17.01.2019 04:00:00 2,3 -0,4 5 3 N 1017,1 10 0,0
17.01.2019 03:00:00 3,0 0,0 8 4 N - 10 -
17.01.2019 02:00:00 3,0 0,0 4 2 NNW - 10 -
17.01.2019 01:00:00 2,9 0,5 4 2 NNE 1018,3 10 -
17.01.2019 00:00:00 3,0 1,0 9 5 N - 10 -
16.01.2019 23:00:00 2,0 1,0 8 4 N - 10 -
16.01.2019 22:00:00 2,5 1,4 4 2 NNE 1019,1 10 0,0
16.01.2019 21:00:00 3,0 3,0 8 4 NE - 10 -
16.01.2019 20:00:00 4,0 3,0 4 2 E - 10 -
16.01.2019 19:00:00 3,6 2,0 4 2 - 1018,9 10 -
16.01.2019 18:00:00 4,0 3,0 5 3 E - 10 -
16.01.2019 17:00:00 5,0 2,0 9 5 ESE - 10 -
16.01.2019 16:00:00 6,4 0,8 9 5 SE 1018,8 10 0,0
16.01.2019 15:00:00 8,0 -1,0 9 5 SSE - 10 -
16.01.2019 14:00:00 9,0 -2,0 8 4 S - 10 -
16.01.2019 13:00:00 9,0 -2,5 4 2 - 1019,4 10 -
16.01.2019 12:00:00 8,0 -2,0 5 3 SSW - 10 -
16.01.2019 11:00:00 7,0 -2,0 2 1 - - 10 -
16.01.2019 10:00:00 4,3 -0,2 4 2 - 1020,6 10 0,0
16.01.2019 09:00:00 1,0 -4,0 5 3 WSW - 10 -
16.01.2019 08:00:00 0,0 -4,0 5 3 W - 10 -
16.01.2019 07:00:00 0,7 -3,7 9 5 WNW 1019,4 10 -
16.01.2019 06:00:00 0,0 -4,0 9 5 WNW - 10 -
16.01.2019 05:00:00 0,0 -4,0 9 5 NW - 10 -
16.01.2019 04:00:00 0,3 -3,8 4 2 NNW 1019,5 - 0,0

tt = temperature
td = dewpoint
ff = wind speed
dd = wind direction
ppp = reduced air pressure
vv = visibility
rr = precipitation

Next stations